TimeCST,TemperatureF,Dew PointF,Humidity,Sea Level PressureIn,VisibilityMPH,Wind Direction,Wind SpeedMPH,Gust SpeedMPH,PrecipitationIn,Events,Conditions,WindDirDegrees,DateUTC
12:53 AM,30.9,19.9,64,30.35,10.0,North,10.4,-,N/A,,Overcast,350,2013-03-02 06:53:00
1:53 AM,30.9,18.0,59,30.35,10.0,North,12.7,-,N/A,,Overcast,360,2013-03-02 07:53:00
2:53 AM,30.9,18.0,59,30.35,10.0,North,13.8,21.9,N/A,,Overcast,360,2013-03-02 08:53:00
3:53 AM,30.0,18.0,61,30.34,10.0,North,10.4,-,N/A,,Overcast,350,2013-03-02 09:53:00
4:53 AM,30.0,18.0,61,30.36,10.0,North,10.4,-,N/A,,Overcast,350,2013-03-02 10:53:00
5:53 AM,28.0,19.0,69,30.37,10.0,NNW,8.1,-,N/A,,Scattered Clouds,330,2013-03-02 11:53:00
6:53 AM,24.1,18.0,77,30.39,10.0,NW,6.9,-,N/A,,Partly Cloudy,310,2013-03-02 12:53:00
7:53 AM,27.0,19.0,72,30.40,10.0,NNW,8.1,-,N/A,,Scattered Clouds,330,2013-03-02 13:53:00
8:53 AM,30.9,19.9,64,30.42,10.0,NNW,12.7,-,N/A,,Partly Cloudy,340,2013-03-02 14:53:00
9:53 AM,33.1,19.0,56,30.41,10.0,NNW,9.2,-,N/A,,Partly Cloudy,330,2013-03-02 15:53:00
10:53 AM,34.0,19.0,54,30.39,10.0,NNW,6.9,-,N/A,,Partly Cloudy,340,2013-03-02 16:53:00
11:53 AM,37.0,19.9,50,30.38,10.0,NNW,8.1,-,N/A,,Partly Cloudy,340,2013-03-02 17:53:00
12:53 PM,39.9,19.9,45,30.35,10.0,North,6.9,-,N/A,,Clear,350,2013-03-02 18:53:00
1:53 PM,43.0,19.0,38,30.31,10.0,North,8.1,-,N/A,,Clear,10,2013-03-02 19:53:00
2:53 PM,45.0,19.0,36,30.30,10.0,Variable,4.6,-,N/A,,Clear,0,2013-03-02 20:53:00
3:53 PM,46.9,19.0,33,30.28,10.0,Variable,3.5,-,N/A,,Clear,0,2013-03-02 21:53:00
4:53 PM,46.0,18.0,33,30.27,10.0,Calm,Calm,-,N/A,,Clear,0,2013-03-02 22:53:00
5:53 PM,45.0,19.0,36,30.27,10.0,ENE,4.6,-,N/A,,Clear,70,2013-03-02 23:53:00
6:53 PM,41.0,19.4,42,30.25,10.0,East,3.5,-,N/A,,Clear,90,2013-03-03 00:53:00
7:53 PM,37.9,19.9,48,30.27,10.0,East,4.6,-,N/A,,Clear,100,2013-03-03 01:53:00
8:53 PM,36.0,21.0,55,30.26,10.0,South,8.1,-,N/A,,Clear,170,2013-03-03 02:53:00
9:53 PM,36.0,21.0,55,30.25,10.0,SSE,6.9,-,N/A,,Clear,150,2013-03-03 03:53:00
10:53 PM,36.0,21.0,55,30.23,10.0,SSE,6.9,-,N/A,,Clear,160,2013-03-03 04:53:00
11:53 PM,35.1,21.0,57,30.21,10.0,SSE,8.1,-,N/A,,Clear,160,2013-03-03 05:53:00